Regional Weather Roundup
Issued by NWS

Home | Current Version | Previous Version | Text Only | Print | Product List | Glossary On
Versions: 1 2 3 4 5 6 7 8 9 10 11 12 13 14 15 16 17 18 19 20 21 22 23 24 25 26 27 28 29 30 31 32 33 34 35 36 37 38 39 40 41 42 43 44 45 46 47 48 49 50
000
ASUS43 KDMX 040407
RWRIA

WEATHER ROUNDUP FOR IOWA
NATIONAL WEATHER SERVICE DES MOINES IA
1100 PM CDT FRI JUL 03 2015

NOTE: "FAIR" INDICATES FEW OR NO CLOUDS BELOW 12,000 FEET WITH NO
SIGNIFICANT WEATHER AND/OR OBSTRUCTIONS TO VISIBILITY.

* - THESE STATIONS ARE NOT NWS STATIONS...THUS NOT UNDER NWS
QUALITY CONTROL.  THEY ALSO DO NOT REPORT WEATHER SUCH
AS PRECIPITATION OR FOG.

IAZ001>003-012>014-020>022-031>034-043>046-040500-
   NORTHWEST IOWA

CITY           SKY/WX    TMP DP  RH WIND       PRES   REMARKS
CARROLL *      CLOUDY    61  57  88 CALM      29.98S
CHEROKEE *     CLEAR     61  61 100 CALM      29.98R
DENISON *      CLOUDY    61  59  94 E3        29.98R
LE MARS *      CLEAR     63  61  94 CALM      29.98R
ORANGE CITY *  CLEAR     64  57  77 CALM      29.98R
SHELDON *      PTCLDY    63  63 100 S3        29.96S
SIOUX CITY     CLEAR     68  59  73 E7        29.97R
SPENCER        PTCLDY    63  57  81 SW7       29.97R
STORM LAKE *   CLEAR     66  55  68 SW5       29.99S
$$

IAZ055>058-069>071-079>083-090>094-040500-
   SOUTHWEST IOWA

CITY           SKY/WX    TMP DP  RH WIND       PRES   REMARKS
ATLANTIC *     CLOUDY    61  57  88 CALM      30.00R
AUDUBON *      CLEAR     57  54  88 CALM      30.01R
CLARINDA *     CLEAR     63  63 100 CALM      30.01R
COUNCIL BLFS * CLOUDY    66  55  68 SE3       30.00R
CRESTON *      CLEAR     66  57  72 CALM      30.00R
HARLAN  *      CLEAR     59  59 100 CALM      30.03R
LAMONI         CLEAR     67  57  70 CALM      29.99R
RED OAK *      CLEAR     61  57  88 CALM      30.00R
SHENANDOAH *   CLEAR     64  61  88 CALM      30.00R
$$

IAZ047>049-059>061-072>074-084-040500-
   CENTRAL IOWA

CITY           SKY/WX    TMP DP  RH WIND       PRES   REMARKS
AMES           CLEAR     62  58  86 CALM      29.97R
ANKENY *       PTCLDY    61  61 100 CALM      29.97R
CHARITON *     CLOUDY    64  59  82 CALM      29.99R
DES MOINES     PTCLDY    68  59  73 S6        29.97R
GRINNELL*      CLEAR     64  57  77 CALM      29.98R
KNOXVILLE *    CLEAR     63  59  88 SW5       29.97R
MARSHALLTOWN   CLEAR     65  59  81 SW3       29.96R
PELLA *          N/A     63  61  94 CALM      29.99R
PERRY *          N/A     64  59  82 W5        29.99R
$$

IAZ004>006-015-016-023>025-035-036-040500-
   NORTH CENTRAL IOWA

CITY           SKY/WX    TMP DP  RH WIND       PRES   REMARKS
ALGONA *       CLEAR     64  59  82 SW6       29.97R
CLARION *      CLEAR     61  55  82 S6        29.97R
ESTHERVILLE    CLEAR     62  58  86 SW7       29.96R
FORT DODGE *   CLEAR     63  54  72 CALM      29.98R
MASON CITY     CLEAR     64  57  78 CALM      29.97R
FOREST CITY *  CLEAR     59  59 100 CALM      29.96S
IOWA FALLS *     N/A     61  57  88 SW3       29.98R
$$

IAZ007>011-017>019-026>030-037>042-050>054-066-040500-
   NORTHEAST IOWA

CITY           SKY/WX    TMP DP  RH WIND       PRES   REMARKS
CEDAR RAPIDS   CLEAR     59  57  93 CALM      29.96R
CHARLES CITY * CLEAR     63  63 100 SW3       29.96S
CLINTON *      CLEAR     63  57  82 CALM      29.98R
DECORAH *        N/A    N/A N/A N/A MISG        N/A
DUBUQUE        CLEAR     60  55  83 CALM      29.96R
MONTICELLO *   CLEAR     59  59 100 CALM      29.96R
OELWEIN *      CLEAR     63  59  88 S3        29.97R
WATERLOO       CLEAR     64  60  87 CALM      29.95R
$$

IAZ064-065-067-068-078-040500-
   EAST CENTRAL IOWA

CITY           SKY/WX    TMP DP  RH WIND       PRES   REMARKS
DAVENPORT      CLEAR     63  59  87 NE3       29.96R
IOWA CITY      CLEAR     62  57  83 CALM      29.97R
MT. PLEASANT * CLEAR     66  59  77 CALM      29.96R
MUSCATINE *    CLEAR     64  59  82 CALM      29.96R
QUAD CITIES    CLEAR     63  59  87 CALM      29.95R
$$

IAZ062-063-075>077-085>089-095>099-040500-
   SOUTHEAST IOWA

CITY           SKY/WX    TMP DP  RH WIND       PRES   REMARKS
BURLINGTON     CLEAR     64  61  90 NE3       29.95R
FAIRFIELD *    CLEAR     61  57  88 CALM      29.97R
FORT MADISON * CLEAR     64  63  94 CALM      29.97R
KEOKUK *       CLEAR     64  63  94 CALM      29.96R
OSKALOOSA *      N/A     61  57  88 CALM      29.98R
CENTERVILLE *  CLEAR    N/A N/A N/A CALM      29.99S
OTTUMWA        CLEAR     65  58  78 N3        29.96R
WASHINGTON *   CLEAR     61  59  94 CALM      29.98R
$$

ABBREVIATIONS USED IN REMARKS
   TC - TEMPERATURES IN CELSIUS
  WCI - WIND CHILL INDEX
   HX - HEAT INDEX
  VSB - VISIBILITY
$$



USA.gov is the U.S. government's official web portal to all federal, state and local government web resources and services.